GOMX-1

Last updated on Mon Sep 15 2025 00:03:09 GMT+0000 (Coordinated Universal Time)

1 39430U 13066Q 25257.28737935 .00001429 00000+0 22756-3 0 9990 2 39430 97.6728 109.9913 0130327 242.5992 116.1906 14.67992736629411
UTC large
Height (km)
Speed (km/s)
/
Latitude / Longitude
Inclination (degrees)
Orbital Period (minutes)
Azimuth
Elevation
Range (km)
Doppler Factor

Next 0 passes for location: London (51.5072 / 0.1276)

Sorry there are no passes over London.